Location: Austin
(30.3000°N, 97.7500°W)
Time: 04:45:45
(UTC-05:00)

Cosmos 2098 Rocket - Pass Details

Date: 18 March 2023
Orbit: 365 x 1109 km, 82.9° (Epoch: 01 April)

Event Time Altitude Azimuth Distance (km) Brightness Sun altitude
Exits shadow 21:42:41 76° 268° (W) 709 3.3 -26.7°
Maximum altitude 21:42:44 76° 276° (W) 710 3.3 -26.7°
Drops below altitude 10° 21:48:06 10° 2° (N) 2,401 6.2 -27.9°
Sets 21:50:47 0° 4° (N) 3,463 7.0 -28.4°
